When you browse on this site, cookies collect data to enhance your experience and personalize the content and advertising you see.
Visit our Privacy Policy to learn more. By continuing to use the site, you agree to this use of cookies and data.
  • In Romania
  • List of Countries
  • For 7 days
  • Water Temperature
  • Weather Map
  • Weather Widgets
  • user-avatar
    Login

    Hourly Weather Haro

    Today, 17 October, Thursday

    Time Temperature Precipitation Wind Pressure Humidity
    00:00 +15°C° 0 mm 2 mps 719 mmHg 56%
    01:00 +15°C° 0 mm 2 mps 719 mmHg 58%
    02:00 +15°C° 0 mm 2 mps 719 mmHg 60%
    03:00 +15°C° 0 mm 2 mps 718 mmHg 62%
    04:00 +15°C° 0.2 mm 2 mps 719 mmHg 66%
    05:00 +14°C° 0.2 mm 2 mps 719 mmHg 70%
    06:00 +14°C° 0 mm 2 mps 719 mmHg 75%
    07:00 +14°C° 0.2 mm 2 mps 719 mmHg 75%
    08:00 +14°C° 0.2 mm 2 mps 719 mmHg 76%
    09:00 +14°C° 0.2 mm 3 mps 720 mmHg 76%
    10:00 +16°C° 0 mm 3 mps 720 mmHg 72%
    11:00 +18°C° 0 mm 3 mps 720 mmHg 67%
    12:00 +19°C° 0 mm 3 mps 720 mmHg 63%
    13:00 +20°C° 0 mm 3 mps 720 mmHg 60%
    14:00 +20°C° 0 mm 4 mps 720 mmHg 57%
    15:00 +21°C° 0 mm 4 mps 719 mmHg 54%
    16:00 +19°C° 0 mm 3 mps 719 mmHg 59%
    17:00 +18°C° 0 mm 2 mps 719 mmHg 64%
    18:00 +16°C° 0 mm 2 mps 719 mmHg 69%
    19:00 +16°C° 0 mm 2 mps 719 mmHg 72%
    20:00 +16°C° 0 mm 2 mps 720 mmHg 74%
    21:00 +15°C° 0 mm 2 mps 720 mmHg 77%
    22:00 +15°C° 0 mm 2 mps 720 mmHg 78%
    23:00 +15°C° 0 mm 2 mps 719 mmHg 79%

    Tomorrow, 18 October, Friday

    Time Temperature Precipitation Wind Pressure Humidity
    00:00 +15°C° 0 mm 2 mps 719 mmHg 81%
    01:00 +15°C° 0 mm 2 mps 719 mmHg 82%
    02:00 +15°C° 0 mm 1 mps 719 mmHg 82%
    03:00 +15°C° 0 mm 1 mps 719 mmHg 83%
    04:00 +15°C° 0.1 mm 1 mps 719 mmHg 84%
    05:00 +15°C° 0.1 mm 1 mps 719 mmHg 84%
    06:00 +15°C° 0.1 mm 1 mps 719 mmHg 85%
    07:00 +16°C° 0 mm 1 mps 719 mmHg 80%
    08:00 +17°C° 0 mm 2 mps 720 mmHg 74%
    09:00 +18°C° 0 mm 2 mps 720 mmHg 69%
    10:00 +19°C° 0.1 mm 3 mps 720 mmHg 64%
    11:00 +20°C° 0.1 mm 3 mps 720 mmHg 58%
    12:00 +20°C° 0.1 mm 4 mps 720 mmHg 53%
    13:00 +21°C° 0 mm 3 mps 719 mmHg 51%
    14:00 +21°C° 0 mm 3 mps 719 mmHg 49%
    15:00 +21°C° 0 mm 3 mps 718 mmHg 47%
    16:00 +19°C° 0 mm 3 mps 718 mmHg 53%
    17:00 +17°C° 0 mm 2 mps 717 mmHg 59%
    18:00 +16°C° 0 mm 1 mps 717 mmHg 65%
    19:00 +15°C° 0 mm 1 mps 717 mmHg 66%
    20:00 +15°C° 0 mm 2 mps 717 mmHg 67%
    21:00 +14°C° 0 mm 2 mps 717 mmHg 68%
    22:00 +14°C° 0 mm 2 mps 716 mmHg 70%
    23:00 +14°C° 0 mm 2 mps 716 mmHg 71%

    Day after tomorrow, 19 October, Saturday

    Time Temperature Precipitation Wind Pressure Humidity
    00:00 +12°C° 0 mm 3 mps 716 mmHg 73%
    01:00 +12°C° 0 mm 3 mps 716 mmHg 74%
    02:00 +12°C° 0 mm 3 mps 715 mmHg 75%
    03:00 +11°C° 0 mm 3 mps 715 mmHg 76%
    04:00 +12°C° 0 mm 2 mps 715 mmHg 76%
    05:00 +12°C° 0 mm 2 mps 715 mmHg 77%
    06:00 +12°C° 0 mm 2 mps 715 mmHg 77%
    07:00 +13°C° 0 mm 2 mps 715 mmHg 71%
    08:00 +15°C° 0 mm 2 mps 715 mmHg 65%
    09:00 +16°C° 0 mm 3 mps 715 mmHg 59%
    10:00 +17°C° 0 mm 3 mps 715 mmHg 56%
    11:00 +18°C° 0 mm 3 mps 715 mmHg 53%
    12:00 +19°C° 0 mm 3 mps 715 mmHg 51%
    13:00 +18°C° 0 mm 2 mps 715 mmHg 53%
    14:00 +18°C° 0 mm 2 mps 714 mmHg 56%
    15:00 +18°C° 0 mm 1 mps 713 mmHg 59%
    16:00 +16°C° 0.3 mm 1 mps 713 mmHg 67%
    17:00 +15°C° 0.3 mm 1 mps 713 mmHg 75%
    18:00 +14°C° 0.3 mm 1 mps 713 mmHg 83%
    19:00 +14°C° 1.7 mm 1 mps 713 mmHg 86%
    20:00 +13°C° 1.7 mm 1 mps 713 mmHg 90%
    21:00 +13°C° 1.7 mm 1 mps 713 mmHg 93%
    22:00 +13°C° 0.9 mm 1 mps 713 mmHg 93%
    23:00 +13°C° 0.9 mm 1 mps 713 mmHg 93%

    20 October, Sunday

    Time Temperature Precipitation Wind Pressure Humidity
    00:00 +13°C° 0.9 mm 1 mps 713 mmHg 93%
    01:00 +12°C° 0.9 mm 1 mps 713 mmHg 94%
    02:00 +12°C° 0.9 mm 1 mps 712 mmHg 95%
    03:00 +12°C° 0.9 mm 1 mps 712 mmHg 95%
    04:00 +10°C° 2.4 mm 2 mps 712 mmHg 94%
    05:00 +10°C° 2.4 mm 2 mps 712 mmHg 93%
    06:00 +10°C° 2.4 mm 2 mps 712 mmHg 91%
    07:00 +9°C° 2.1 mm 2 mps 713 mmHg 91%
    08:00 +9°C° 2.1 mm 2 mps 713 mmHg 91%
    09:00 +9°C° 2.1 mm 2 mps 714 mmHg 90%
    10:00 +9°C° 1 mm 2 mps 714 mmHg 89%
    11:00 +9°C° 1 mm 2 mps 714 mmHg 89%
    12:00 +9°C° 1 mm 2 mps 715 mmHg 88%
    13:00 +9°C° 1.1 mm 2 mps 715 mmHg 89%
    14:00 +9°C° 1.1 mm 2 mps 715 mmHg 89%
    15:00 +9°C° 1.1 mm 2 mps 716 mmHg 90%
    16:00 +9°C° 1.2 mm 2 mps 716 mmHg 90%
    17:00 +8°C° 1.2 mm 2 mps 717 mmHg 90%
    18:00 +8°C° 1.2 mm 2 mps 717 mmHg 90%
    19:00 +9°C° 0 mm 1 mps 718 mmHg 89%
    20:00 +9°C° 0 mm 1 mps 718 mmHg 88%
    21:00 +9°C° 0 mm 1 mps 719 mmHg 87%
    22:00 +9°C° 0 mm 1 mps 719 mmHg 88%
    23:00 +8°C° 0 mm 1 mps 719 mmHg 88%

    21 October, Monday

    Time Temperature Precipitation Wind Pressure Humidity
    00:00 +8°C° 0 mm 1 mps 719 mmHg 89%
    01:00 +7°C° 0 mm 1 mps 719 mmHg 90%
    02:00 +7°C° 0 mm 1 mps 719 mmHg 90%
    03:00 +7°C° 0 mm 1 mps 719 mmHg 91%
    04:00 +7°C° 0 mm 1 mps 720 mmHg 91%
    05:00 +7°C° 0 mm 1 mps 720 mmHg 91%
    06:00 +7°C° 0 mm 1 mps 720 mmHg 91%
    07:00 +8°C° 0 mm 1 mps 721 mmHg 86%
    08:00 +10°C° 0 mm 1 mps 721 mmHg 81%
    09:00 +11°C° 0 mm 1 mps 721 mmHg 76%
    10:00 +12°C° 0 mm 1 mps 721 mmHg 71%
    11:00 +13°C° 0 mm 2 mps 721 mmHg 67%
    12:00 +14°C° 0 mm 2 mps 721 mmHg 62%
    13:00 +15°C° 0.1 mm 2 mps 721 mmHg 61%
    14:00 +15°C° 0.1 mm 2 mps 721 mmHg 59%
    15:00 +14°C° 0.1 mm 3 mps 721 mmHg 58%
    16:00 +13°C° 0.1 mm 2 mps 721 mmHg 68%
    17:00 +10°C° 0.1 mm 2 mps 721 mmHg 78%
    18:00 +9°C° 0.1 mm 2 mps 721 mmHg 88%
    19:00 +9°C° 0 mm 1 mps 721 mmHg 90%
    20:00 +9°C° 0 mm 1 mps 721 mmHg 92%
    21:00 +8°C° 0 mm 1 mps 721 mmHg 94%
    22:00 +8°C° 0 mm 1 mps 721 mmHg 94%
    23:00 +8°C° 0 mm 1 mps 721 mmHg 94%

    22 October, Tuesday

    Time Temperature Precipitation Wind Pressure Humidity
    00:00 +6°C° 0 mm 0 mps 721 mmHg 94%
    01:00 +6°C° 0 mm 0 mps 721 mmHg 94%
    02:00 +6°C° 0 mm 0 mps 720 mmHg 93%
    03:00 +6°C° 0 mm 0 mps 720 mmHg 93%
    04:00 +7°C° 0 mm 1 mps 720 mmHg 93%
    05:00 +8°C° 0 mm 1 mps 719 mmHg 93%
    06:00 +8°C° 0 mm 1 mps 719 mmHg 93%
    07:00 +8°C° 0 mm 2 mps 719 mmHg 90%
    08:00 +9°C° 0 mm 2 mps 719 mmHg 87%
    09:00 +10°C° 0 mm 2 mps 719 mmHg 83%
    10:00 +10°C° 0.1 mm 3 mps 718 mmHg 79%
    11:00 +11°C° 0.1 mm 4 mps 718 mmHg 75%
    12:00 +11°C° 0.1 mm 4 mps 718 mmHg 72%
    13:00 +11°C° 0.2 mm 4 mps 717 mmHg 75%
    14:00 +10°C° 0.2 mm 4 mps 716 mmHg 78%
    15:00 +10°C° 0.2 mm 4 mps 716 mmHg 81%
    16:00 +8°C° 0.6 mm 4 mps 715 mmHg 84%
    17:00 +9°C° 0.6 mm 3 mps 715 mmHg 88%
    18:00 +8°C° 0.6 mm 3 mps 715 mmHg 92%
    19:00 +8°C° 0.9 mm 3 mps 715 mmHg 93%
    20:00 +8°C° 0.9 mm 2 mps 714 mmHg 94%
    21:00 +8°C° 0.9 mm 2 mps 714 mmHg 94%
    22:00 +9°C° 2.3 mm 2 mps 714 mmHg 95%
    23:00 +9°C° 2.3 mm 2 mps 713 mmHg 96%
    Show more